Flag for U.S.A. Weather past 2 weeks in Shiprock, New Mexico, U.S.A.

Now
75 °F

Sunny.


Feels Like: 76 °F
Forecast: 44 / 78 °F
Wind: 10 mph from West

Location: Four Corners Regional Airport

Current Time: Oct 24, 2014 at 6:04:07 PM

Latest Report: Oct 24, 2014 at 4:53 PM


Visibility: 10 mi

Pressure: 30.14 "Hg

Humidity: 18%

Dew point: 28 °F

Location of ShiprockLocation

Historic Weather in Shiprock — Graph

°F

Shiprock temperature yesterday

Maximum temperature yesterday: 72 °F (at 2:53 PM)
Minimum temperature yesterday: 40 °F (at 5:53 AM)
Average temperature yesterday: 54 °F

Past Weeks' High & Low Weather Summary

 TemperatureHumidityPressure
High77 °F (Oct 15, 3:53 PM)97% (Oct 10, 5:53 AM)30.31 "Hg (Oct 10, 5:53 AM)
Low35 °F (Oct 14, 6:53 AM)13% (Oct 12, 1:53 PM)29.72 "Hg (Oct 12, 11:53 AM)
Average55 °F54%30.06 "Hg
* Reported Oct 9 4:53 PM — Oct 24 4:53 PM, Shiprock, Weather by CustomWeather, © 2014

Note: Actual official high and low records may vary slightly from our data, if they occured in-between our weather recording intervals... More about our weather records

Advertising

Shiprock weather history for previous 24 hours

 ConditionsComfort  
Time TempWeatherWind HumidityBarometerVisibility
4:53 PM
Oct 24
75 °FSunny.10 mph18%30.14 "Hg10 mi
3:53 PM75 °FSunny.10 mph18%30.15 "Hg10 mi
2:53 PM75 °FSunny.7 mph19%30.16 "Hg10 mi
1:53 PM72 °FSunny.3 mph23%30.19 "Hg10 mi
12:53 PM68 °FSunny.3 mph27%30.23 "Hg10 mi
11:53 AM64 °FSunny.8 mph35%30.27 "Hg10 mi
10:53 AM58 °FSunny.8 mph47%30.29 "Hg10 mi
9:53 AM52 °FSunny.7 mph55%30.31 "Hg10 mi
8:53 AM47 °FSunny.8 mph61%30.31 "Hg10 mi
7:53 AM42 °FClear.8 mph73%30.27 "Hg10 mi
6:53 AM42 °FClear.6 mph73%30.25 "Hg10 mi
5:53 AM43 °FClear.8 mph71%30.22 "Hg10 mi
4:53 AM43 °FClear.8 mph71%30.20 "Hg10 mi
3:53 AM43 °FClear.7 mph68%30.19 "Hg10 mi
2:53 AM45 °FClear.8 mph65%30.19 "Hg10 mi
1:53 AM46 °FClear.9 mph63%30.19 "Hg10 mi
12:53 AM48 °FClear.8 mph56%30.18 "Hg10 mi
11:53 PM
Oct 23
47 °FClear.7 mph56%30.19 "Hg10 mi
10:53 PM48 °FClear.3 mph50%30.20 "Hg10 mi
9:53 PM49 °FClear.6 mph50%30.20 "Hg10 mi
8:53 PM51 °FClear.No wind46%30.19 "Hg10 mi
7:53 PM60 °FClear.No wind36%30.17 "Hg10 mi
6:53 PM62 °FSunny.7 mph34%30.16 "Hg10 mi
Weather by CustomWeather, © 2014

See weather overviewHow to use our weather pages